Time,TemperatureF,DewpointF,PressureIn,WindDirection,WindDirectionDegrees,WindSpeedMPH,WindSpeedGustMPH,Humidity,HourlyPrecipIn,Conditions,Clouds,dailyrainin,SoftwareType,DateUTC
2013-04-18 00:13:00,75.9,68.0,29.87,SSE,167,3.0,6.0,77,0.00,,,0.00,weatherlink.com 1.10,2013-04-18 05:13:00,
2013-04-18 00:28:00,76.0,68.0,29.88,South,190,1.0,6.0,77,0.00,,,0.00,weatherlink.com 1.10,2013-04-18 05:28:00,
2013-04-18 00:43:00,75.8,68.0,29.87,SSE,159,2.0,4.0,77,0.00,,,0.00,weatherlink.com 1.10,2013-04-18 05:43:00,
2013-04-18 00:58:00,75.6,68.0,29.87,SSE,150,1.0,4.0,78,0.00,,,0.00,weatherlink.com 1.10,2013-04-18 05:58:00,
2013-04-18 01:13:00,75.4,68.0,29.86,SSE,163,1.0,4.0,78,0.00,,,0.00,weatherlink.com 1.10,2013-04-18 06:13:00,
2013-04-18 01:28:00,75.2,68.0,29.86,ENE,76,2.0,4.0,79,0.00,,,0.00,weatherlink.com 1.10,2013-04-18 06:28:00,
2013-04-18 01:43:00,74.9,68.0,29.86,SSE,165,3.0,3.0,80,0.00,,,0.00,weatherlink.com 1.10,2013-04-18 06:43:00,
2013-04-18 01:58:00,74.7,68.0,29.86,South,169,1.0,3.0,80,0.00,,,0.00,weatherlink.com 1.10,2013-04-18 06:58:00,
2013-04-18 02:13:00,74.5,68.0,29.85,SE,143,1.0,4.0,80,0.00,,,0.00,weatherlink.com 1.10,2013-04-18 07:13:00,
2013-04-18 02:28:00,74.2,68.0,29.84,SSE,161,1.0,4.0,80,0.00,,,0.00,weatherlink.com 1.10,2013-04-18 07:28:00,
2013-04-18 02:43:00,74.0,68.0,29.83,ESE,115,0.0,4.0,81,0.00,,,0.00,weatherlink.com 1.10,2013-04-18 07:43:00,
2013-04-18 02:58:00,73.8,68.0,29.83,SSW,197,2.0,3.0,81,0.00,,,0.00,weatherlink.com 1.10,2013-04-18 07:58:00,
2013-04-18 03:13:00,73.6,67.0,29.82,SSE,148,2.0,5.0,81,0.00,,,0.00,weatherlink.com 1.10,2013-04-18 08:13:00,
2013-04-18 03:28:00,73.6,67.0,29.83,South,187,2.0,9.0,81,0.00,,,0.00,weatherlink.com 1.10,2013-04-18 08:28:00,
2013-04-18 03:43:00,73.5,67.0,29.83,South,172,1.0,4.0,81,0.00,,,0.00,weatherlink.com 1.10,2013-04-18 08:43:00,
2013-04-18 03:58:00,73.5,67.0,29.83,South,181,1.0,4.0,81,0.00,,,0.00,weatherlink.com 1.10,2013-04-18 08:58:00,
2013-04-18 04:13:00,73.4,67.0,29.81,SSE,162,3.0,5.0,80,0.00,,,0.00,weatherlink.com 1.10,2013-04-18 09:13:00,
2013-04-18 04:28:00,73.1,67.0,29.82,SSE,160,2.0,5.0,81,0.00,,,0.00,weatherlink.com 1.10,2013-04-18 09:28:00,
2013-04-18 04:43:00,72.7,67.0,29.82,SSE,160,2.0,4.0,81,0.00,,,0.00,weatherlink.com 1.10,2013-04-18 09:43:00,
2013-04-18 04:58:00,72.6,67.0,29.82,ESE,108,4.0,5.0,81,0.00,,,0.00,weatherlink.com 1.10,2013-04-18 09:58:00,
2013-04-18 05:13:00,72.4,66.0,29.82,SSE,163,1.0,4.0,81,0.00,,,0.00,weatherlink.com 1.10,2013-04-18 10:13:00,
2013-04-18 05:28:00,72.2,66.0,29.82,SW,219,2.0,3.0,82,0.00,,,0.00,weatherlink.com 1.10,2013-04-18 10:28:00,
2013-04-18 05:43:00,72.0,66.0,29.83,South,190,1.0,4.0,82,0.00,,,0.00,weatherlink.com 1.10,2013-04-18 10:43:00,
2013-04-18 05:58:00,71.9,66.0,29.83,SW,231,1.0,7.0,82,0.00,,,0.00,weatherlink.com 1.10,2013-04-18 10:58:00,
2013-04-18 06:13:00,71.8,66.0,29.83,SSE,160,4.0,6.0,81,0.00,,,0.00,weatherlink.com 1.10,2013-04-18 11:13:00,
2013-04-18 06:28:00,71.6,66.0,29.84,SSW,197,2.0,4.0,82,0.00,,,0.00,weatherlink.com 1.10,2013-04-18 11:28:00,
2013-04-18 06:43:00,71.4,66.0,29.84,SSW,210,1.0,3.0,82,0.00,,,0.00,weatherlink.com 1.10,2013-04-18 11:43:00,
2013-04-18 06:58:00,71.5,65.0,29.85,SSE,153,1.0,4.0,81,0.00,,,0.00,weatherlink.com 1.10,2013-04-18 11:58:00,
2013-04-18 07:13:00,71.4,65.0,29.85,SSE,150,2.0,5.0,80,0.00,,,0.00,weatherlink.com 1.10,2013-04-18 12:13:00,
2013-04-18 07:29:00,71.1,65.0,29.85,South,184,1.0,5.0,80,0.00,,,0.00,weatherlink.com 1.10,2013-04-18 12:29:00,
2013-04-18 07:44:00,71.1,64.0,29.85,South,187,3.0,4.0,79,0.00,,,0.00,weatherlink.com 1.10,2013-04-18 12:44:00,
2013-04-18 07:59:00,71.2,64.0,29.84,SSW,205,1.0,5.0,78,0.00,,,0.00,weatherlink.com 1.10,2013-04-18 12:59:00,
2013-04-18 08:14:00,71.4,64.0,29.84,SSE,163,4.0,6.0,78,0.00,,,0.00,weatherlink.com 1.10,2013-04-18 13:14:00,
2013-04-18 08:29:00,71.8,64.0,29.82,SSE,160,1.0,4.0,77,0.00,,,0.00,weatherlink.com 1.10,2013-04-18 13:29:00,
2013-04-18 08:44:00,72.4,63.0,29.82,South,179,2.0,6.0,73,0.00,,,0.00,weatherlink.com 1.10,2013-04-18 13:44:00,
2013-04-18 08:59:00,72.6,63.0,29.82,SSE,160,2.0,7.0,71,0.00,,,0.00,weatherlink.com 1.10,2013-04-18 13:59:00,
2013-04-18 09:14:00,73.1,63.0,29.82,South,187,2.0,4.0,70,0.00,,,0.00,weatherlink.com 1.10,2013-04-18 14:14:00,
2013-04-18 09:29:00,74.1,63.0,29.81,SSW,204,1.0,4.0,68,0.00,,,0.00,weatherlink.com 1.10,2013-04-18 14:29:00,
2013-04-18 09:44:00,75.2,63.0,29.80,NE,48,2.0,5.0,66,0.00,,,0.00,weatherlink.com 1.10,2013-04-18 14:44:00,
2013-04-18 09:59:00,75.8,63.0,29.81,SSW,193,1.0,8.0,65,0.00,,,0.00,weatherlink.com 1.10,2013-04-18 14:59:00,
2013-04-18 10:15:00,76.7,63.0,29.82,SSE,147,2.0,7.0,62,0.00,,,0.00,weatherlink.com 1.10,2013-04-18 15:15:00,
2013-04-18 10:29:00,78.0,62.0,29.83,SSE,150,2.0,7.0,59,0.00,,,0.00,weatherlink.com 1.10,2013-04-18 15:29:00,
2013-04-18 10:44:00,78.9,62.0,29.84,SSW,194,2.0,6.0,57,0.00,,,0.00,weatherlink.com 1.10,2013-04-18 15:44:00,
2013-04-18 10:59:00,79.2,62.0,29.84,SSW,212,2.0,6.0,56,0.00,,,0.00,weatherlink.com 1.10,2013-04-18 15:59:00,
2013-04-18 11:14:00,80.3,62.0,29.83,SE,125,4.0,7.0,54,0.00,,,0.00,weatherlink.com 1.10,2013-04-18 16:14:00,
2013-04-18 11:29:00,80.9,63.0,29.82,SE,141,1.0,5.0,54,0.00,,,0.00,weatherlink.com 1.10,2013-04-18 16:29:00,
2013-04-18 11:44:00,79.8,62.0,29.82,SSW,194,2.0,9.0,54,0.00,,,0.00,weatherlink.com 1.10,2013-04-18 16:44:00,
2013-04-18 11:59:00,79.6,62.0,29.82,SW,222,2.0,7.0,56,0.00,,,0.00,weatherlink.com 1.10,2013-04-18 16:59:00,
2013-04-18 12:14:00,79.6,63.0,29.82,SW,226,2.0,6.0,57,0.00,,,0.00,weatherlink.com 1.10,2013-04-18 17:14:00,
2013-04-18 12:29:00,79.2,64.0,29.81,SW,221,1.0,6.0,59,0.00,,,0.00,weatherlink.com 1.10,2013-04-18 17:29:00,
2013-04-18 12:44:00,78.3,63.0,29.81,SSW,200,2.0,6.0,60,0.00,,,0.00,weatherlink.com 1.10,2013-04-18 17:44:00,
2013-04-18 12:59:00,77.6,64.0,29.79,West,259,3.0,5.0,63,0.00,,,0.00,weatherlink.com 1.10,2013-04-18 17:59:00,
2013-04-18 13:14:00,76.9,64.0,29.79,SSW,211,1.0,5.0,64,0.00,,,0.00,weatherlink.com 1.10,2013-04-18 18:14:00,
2013-04-18 13:29:00,77.2,65.0,29.78,SSE,155,3.0,6.0,66,0.00,,,0.00,weatherlink.com 1.10,2013-04-18 18:29:00,
2013-04-18 13:44:00,77.7,65.0,29.77,SSE,150,4.0,5.0,65,0.00,,,0.00,weatherlink.com 1.10,2013-04-18 18:44:00,
2013-04-18 13:59:00,78.0,65.0,29.76,South,179,2.0,6.0,64,0.00,,,0.00,weatherlink.com 1.10,2013-04-18 18:59:00,
2013-04-18 14:14:00,78.4,65.0,29.75,South,185,2.0,7.0,64,0.00,,,0.00,weatherlink.com 1.10,2013-04-18 19:14:00,
2013-04-18 14:29:00,79.1,65.0,29.74,SE,143,4.0,6.0,62,0.00,,,0.00,weatherlink.com 1.10,2013-04-18 19:29:00,
2013-04-18 14:44:00,79.0,64.0,29.73,South,174,2.0,8.0,61,0.00,,,0.00,weatherlink.com 1.10,2013-04-18 19:44:00,
2013-04-18 14:59:00,80.2,65.0,29.70,SSW,204,2.0,6.0,60,0.00,,,0.00,weatherlink.com 1.10,2013-04-18 19:59:00,
2013-04-18 15:14:00,80.4,64.0,29.69,SSE,154,5.0,7.0,58,0.00,,,0.00,weatherlink.com 1.10,2013-04-18 20:14:00,
2013-04-18 15:29:00,79.7,64.0,29.68,SSE,154,4.0,7.0,58,0.00,,,0.00,weatherlink.com 1.10,2013-04-18 20:29:00,
2013-04-18 15:45:00,79.1,64.0,29.68,SSE,157,4.0,6.0,60,0.00,,,0.00,weatherlink.com 1.10,2013-04-18 20:45:00,
2013-04-18 16:00:00,78.8,64.0,29.66,SSE,151,2.0,6.0,61,0.00,,,0.00,weatherlink.com 1.10,2013-04-18 21:00:00,
2013-04-18 16:15:00,78.6,64.0,29.66,SSE,160,2.0,4.0,62,0.00,,,0.00,weatherlink.com 1.10,2013-04-18 21:15:00,
2013-04-18 16:45:00,78.5,65.0,29.64,SSW,197,1.0,4.0,63,0.00,,,0.00,weatherlink.com 1.10,2013-04-18 21:45:00,
2013-04-18 17:00:00,78.5,65.0,29.64,SSE,158,2.0,4.0,63,0.00,,,0.00,weatherlink.com 1.10,2013-04-18 22:00:00,
2013-04-18 17:15:00,78.5,64.0,29.64,SSE,167,3.0,4.0,62,0.00,,,0.00,weatherlink.com 1.10,2013-04-18 22:15:00,
2013-04-18 17:30:00,78.2,66.0,29.65,South,177,2.0,4.0,66,0.01,,,0.01,weatherlink.com 1.10,2013-04-18 22:30:00,
2013-04-18 17:45:00,74.9,67.0,29.65,South,188,0.0,2.0,76,0.05,,,0.05,weatherlink.com 1.10,2013-04-18 22:45:00,
2013-04-18 18:04:00,72.4,67.0,29.66,SSW,197,0.0,1.0,84,0.12,,,0.12,weatherlink.com 1.10,2013-04-18 23:04:00,
2013-04-18 18:15:00,70.9,67.0,29.64,SSW,197,0.0,0.0,88,0.18,,,0.18,weatherlink.com 1.10,2013-04-18 23:15:00,
2013-04-18 18:30:00,70.2,68.0,29.65,SW,219,0.0,1.0,91,0.30,,,0.30,weatherlink.com 1.10,2013-04-18 23:30:00,
2013-04-18 18:45:00,69.6,67.0,29.62,SW,219,0.0,0.0,92,0.34,,,0.37,weatherlink.com 1.10,2013-04-18 23:45:00,
2013-04-18 19:00:00,69.2,67.0,29.62,SW,220,0.0,1.0,93,0.34,,,0.45,weatherlink.com 1.10,2013-04-19 00:00:00,
2013-04-18 19:15:00,66.4,62.0,29.65,NE,51,7.0,10.0,86,0.69,,,0.87,weatherlink.com 1.10,2013-04-19 00:15:00,
2013-04-18 19:31:00,59.5,56.0,29.68,NNW,340,3.0,20.0,88,0.73,,,1.03,weatherlink.com 1.10,2013-04-19 00:31:00,
2013-04-18 19:45:00,56.1,54.0,29.70,WNW,289,4.0,14.0,91,0.84,,,1.20,weatherlink.com 1.10,2013-04-19 00:45:00,
2013-04-18 20:01:00,53.7,52.0,29.72,West,278,3.0,11.0,92,0.89,,,1.34,weatherlink.com 1.10,2013-04-19 01:01:00,
2013-04-18 20:15:00,53.1,51.0,29.73,WSW,256,3.0,4.0,93,0.51,,,1.39,weatherlink.com 1.10,2013-04-19 01:15:00,
2013-04-18 20:31:00,52.8,51.0,29.77,SSW,194,2.0,7.0,94,0.41,,,1.45,weatherlink.com 1.10,2013-04-19 01:31:00,
2013-04-18 20:46:00,52.1,51.0,29.76,West,274,4.0,7.0,94,0.35,,,1.56,weatherlink.com 1.10,2013-04-19 01:46:00,
2013-04-18 21:01:00,51.4,50.0,29.76,West,281,1.0,7.0,93,0.32,,,1.66,weatherlink.com 1.10,2013-04-19 02:01:00,
2013-04-18 21:16:00,50.6,49.0,29.79,WNW,288,3.0,8.0,93,0.30,,,1.69,weatherlink.com 1.10,2013-04-19 02:16:00,
2013-04-18 21:32:00,50.0,48.0,29.80,WSW,256,4.0,7.0,93,0.35,,,1.81,weatherlink.com 1.10,2013-04-19 02:32:00,
2013-04-18 21:47:00,48.9,47.0,29.81,SSW,210,8.0,9.0,92,0.32,,,1.88,weatherlink.com 1.10,2013-04-19 02:47:00,
2013-04-18 22:02:00,47.9,46.0,29.82,West,281,3.0,10.0,92,0.27,,,1.94,weatherlink.com 1.10,2013-04-19 03:02:00,
2013-04-18 22:17:00,47.5,46.0,29.86,North,349,4.0,12.0,93,0.31,,,2.00,weatherlink.com 1.10,2013-04-19 03:17:00,
2013-04-18 22:32:00,47.3,45.0,29.82,NW,308,0.0,6.0,93,0.28,,,2.09,weatherlink.com 1.10,2013-04-19 03:32:00,
2013-04-18 22:47:00,47.2,46.0,29.87,SW,222,3.0,7.0,94,0.23,,,2.11,weatherlink.com 1.10,2013-04-19 03:47:00,
2013-04-18 23:02:00,47.0,45.0,29.86,NNW,328,3.0,12.0,91,0.19,,,2.13,weatherlink.com 1.10,2013-04-19 04:02:00,
2013-04-18 23:17:00,46.8,45.0,29.85,WNW,298,4.0,7.0,92,0.13,,,2.13,weatherlink.com 1.10,2013-04-19 04:17:00,
2013-04-18 23:32:00,46.5,44.0,29.86,SW,221,2.0,7.0,91,0.04,,,2.13,weatherlink.com 1.10,2013-04-19 04:32:00,
2013-04-18 23:47:00,46.5,44.0,29.88,WNW,283,1.0,5.0,92,0.02,,,2.13,weatherlink.com 1.10,2013-04-19 04:47:00,